Location: ????
(33.1659°N, 35.6604°E)
Time: 10:56:21
(UTC+00:00)

Cosmos 405 Rocket - Pass Details

Date: 20 September 2019
Orbit: 491 x 554 km, 81.3° (Epoch: 15 October)

Event Time Altitude Azimuth Distance (km) Brightness Sun altitude
Rises 17:18:03 0° 195° (SSW) 2,555 6.2 -21.6°
Reaches altitude 10° 17:20:10 10° 199° (SSW) 1,675 5.3 -22.0°
Maximum altitude 17:23:46 59° 279° (W) 573 3.1 -22.7°
Drops below altitude 10° 17:27:25 10° 360° (N) 1,690 5.5 -23.5°
Sets 17:29:34 0° 4° (N) 2,581 6.4 -23.9°
